Weather History for PAII - January, 2014

Change the Weather History Date:

Saturday, January 4, 2014

  Actual Average (PAKN) Record (PAKN)
Temperature  
Mean Temperature 36 °F 17 °F  
Max Temperature 41 °F 24 °F 43 °F (1981)
Min Temperature 30 °F - -37 °F (1949)
Degree Days  
Heating Degree Days 30 48  
Month to date heating degree days 192  
Since 1 July heating degree days 5005  
Cooling Degree Days 0    
Month to date cooling degree days  
Year to date cooling degree days  
Moisture  
Dew Point 33 °F    
Average Humidity 87    
Maximum Humidity 93    
Minimum Humidity 75    
Precipitation  
Precipitation 0.44 in 0.04 in 0.87 in (1953)
Month to date precipitation 0.13  
Year to date precipitation 0.13  
Snow  
Snow 0.00 in 0.30 in 2.50 in (1919)
Month to date snowfall 1.1  
Since 1 July snowfall 20.4  
Snow Depth -    
Sea Level Pressure  
Sea Level Pressure 29.32 in    
Wind  
Wind Speed 13 mph (ENE)    
Max Wind Speed 23 mph    
Max Gust Speed 31 mph    
Visibility 10 miles    
Events      
T = Trace of Precipitation, MM = Missing Value Source: NWS Daily Summary

Daily Weather History Graph

Daily Weather History Graph

Search for Another Location

Airport or City:

Trip Planner

Search our weather history database for the weather conditions in past years. The results will help you decide how hot, cold, wet, or windy it might be!

Date:

Astronomy

Jan. 04, 2014 Rise Set
Actual Time 10:14 AM AKST 4:54 PM AKST
Civil Twilight 9:23 AM AKST 5:45 PM AKST
Nautical Twilight 8:31 AM AKST 6:38 PM AKST
Astronomical Twilight 7:43 AM AKST 7:26 PM AKST
Moon 11:25 AM AKST (1/4) 10:35 PM AKST (1/4)
Length of Visible Light 8h 22m
Length of Day
6h 40m
Waxing Crescent, 16% of the Moon is Illuminated
Jan 4
Waxing Crescent
Jan 7
First Quarter
Jan 15
Full
Jan 23
Last Quarter
Jan 30
New

Hourly Weather History & Observations

Time (AKST) Temp. Windchill Dew Point Humidity Pressure Visibility Wind Dir Wind Speed Gust Speed Precip Events Conditions
12:16 AM 30.2 °F 21.9 °F 26.6 °F 86% 29.86 in 10.0 mi NE 9.2 mph - N/A   Scattered Clouds
12:36 AM 30.2 °F 23.4 °F 26.6 °F 86% 29.84 in 10.0 mi NE 6.9 mph - N/A   Overcast
12:56 AM 30.2 °F 22.6 °F 26.6 °F 86% 29.82 in 10.0 mi NNE 8.1 mph - N/A   Mostly Cloudy
1:16 AM 32.0 °F 24.2 °F 28.4 °F 87% 29.80 in 10.0 mi NNE 9.2 mph - N/A   Overcast
1:36 AM 32.0 °F 25.6 °F 28.4 °F 87% 29.78 in 10.0 mi NE 6.9 mph - N/A   Overcast
1:56 AM 33.8 °F 27.0 °F 28.4 °F 81% 29.76 in 10.0 mi NE 8.1 mph - N/A   Overcast
2:16 AM 33.8 °F 25.8 °F 30.2 °F 87% 29.74 in 10.0 mi NNE 10.4 mph - N/A   Overcast
2:36 AM 35.6 °F 26.2 °F 30.2 °F 81% 29.71 in 10.0 mi NE 15.0 mph 20.7 mph N/A   Overcast
2:56 AM 35.6 °F 26.2 °F 30.2 °F 81% 29.69 in 10.0 mi NE 15.0 mph 19.6 mph N/A   Overcast
3:16 AM 35.6 °F 26.2 °F 30.2 °F 81% 29.67 in 10.0 mi ENE 15.0 mph 20.7 mph N/A   Overcast
3:36 AM 37.4 °F 27.2 °F 30.2 °F 75% 29.65 in 10.0 mi ENE 19.6 mph 25.3 mph N/A   Overcast
3:56 AM 35.6 °F 25.2 °F 30.2 °F 81% 29.63 in 10.0 mi ENE 18.4 mph 23.0 mph N/A   Overcast
4:16 AM 35.6 °F 25.5 °F 30.2 °F 81% 29.61 in 10.0 mi NE 17.3 mph 21.9 mph N/A   Overcast
4:36 AM 35.6 °F 26.2 °F 32.0 °F 87% 29.59 in 10.0 mi ENE 15.0 mph 19.6 mph N/A   Overcast
4:56 AM 35.6 °F 26.2 °F 32.0 °F 87% 29.56 in 10.0 mi ENE 15.0 mph 21.9 mph N/A   Overcast
5:16 AM 37.4 °F 28.5 °F 32.0 °F 81% 29.55 in 10.0 mi ENE 15.0 mph - N/A   Overcast
5:36 AM 35.6 °F 26.6 °F 30.2 °F 81% 29.53 in 10.0 mi ENE 13.8 mph 19.6 mph N/A   Overcast
5:56 AM 35.6 °F 26.6 °F 32.0 °F 87% 29.52 in 10.0 mi ENE 13.8 mph - N/A   Overcast
6:16 AM 35.6 °F 26.6 °F 32.0 °F 87% 29.50 in 8.0 mi NE 13.8 mph 20.7 mph N/A   Overcast
6:36 AM 35.6 °F 27.1 °F 32.0 °F 87% 29.48 in 10.0 mi NE 12.7 mph 20.7 mph N/A   Overcast
6:56 AM 35.6 °F 25.9 °F 32.0 °F 87% 29.45 in 10.0 mi NE 16.1 mph - 0.01 in   Overcast
7:16 AM 35.6 °F 24.8 °F 32.0 °F 87% 29.43 in 10.0 mi NE 19.6 mph 26.5 mph N/A   Overcast
7:36 AM 35.6 °F 25.5 °F 33.8 °F 93% 29.41 in 10.0 mi NE 17.3 mph 25.3 mph N/A   Overcast
7:56 AM 35.6 °F 25.2 °F 32.0 °F 87% 29.39 in 10.0 mi NE 18.4 mph 24.2 mph 0.01 in   Overcast
8:16 AM 35.6 °F 24.5 °F 32.0 °F 87% 29.37 in 10.0 mi NE 20.7 mph 28.8 mph 0.02 in   Overcast
8:36 AM 35.6 °F 24.2 °F 32.0 °F 87% 29.35 in 10.0 mi NE 21.9 mph 28.8 mph 0.03 in   Overcast
8:56 AM 35.6 °F 24.2 °F 32.0 °F 87% 29.33 in 10.0 mi NE 21.9 mph 29.9 mph 0.03 in   Overcast
9:16 AM 35.6 °F 25.2 °F 32.0 °F 87% 29.32 in 10.0 mi ENE 18.4 mph 25.3 mph N/A   Overcast
9:36 AM 35.6 °F 24.8 °F 32.0 °F 87% 29.30 in 10.0 mi ENE 19.6 mph 27.6 mph 0.01 in   Overcast
9:56 AM 35.6 °F 25.2 °F 32.0 °F 87% 29.29 in 6.0 mi ENE 18.4 mph 27.6 mph 0.06 in   Overcast
10:16 AM 35.6 °F 25.9 °F 32.0 °F 87% 29.29 in 8.0 mi ENE 16.1 mph 23.0 mph 0.04 in   Overcast
10:36 AM 33.8 °F 23.2 °F 32.0 °F 93% 29.28 in 6.0 mi ENE 17.3 mph 25.3 mph 0.08 in   Overcast
10:56 AM 33.8 °F 22.2 °F 32.0 °F 93% 29.27 in 5.0 mi ENE 20.7 mph 28.8 mph 0.12 in   Overcast
11:16 AM 33.8 °F 23.5 °F 30.2 °F 87% 29.26 in 4.0 mi ENE 16.1 mph - 0.02 in   Overcast
11:36 AM 33.8 °F 23.5 °F 30.2 °F 87% 29.25 in 4.0 mi NE 16.1 mph 20.7 mph 0.03 in   Overcast
11:56 AM 33.8 °F 24.3 °F 32.0 °F 93% 29.24 in 9.0 mi NE 13.8 mph - 0.05 in   Overcast
12:16 PM 33.8 °F 23.9 °F 32.0 °F 93% 29.23 in 10.0 mi NE 15.0 mph - 0.03 in   Overcast
12:36 PM 35.6 °F 28.0 °F 32.0 °F 87% 29.22 in 10.0 mi ENE 10.4 mph - 0.05 in   Overcast
12:56 PM 35.6 °F 28.6 °F 33.8 °F 93% 29.21 in 10.0 mi ENE 9.2 mph - 0.07 in   Overcast
1:16 PM 35.6 °F 28.0 °F 33.8 °F 93% 29.20 in 10.0 mi East 10.4 mph 16.1 mph 0.01 in   Overcast
1:36 PM 37.4 °F 28.5 °F 35.6 °F 93% 29.18 in 10.0 mi ESE 15.0 mph 23.0 mph 0.01 in   Overcast
1:56 PM 39.2 °F 29.6 °F 35.6 °F 87% 29.17 in 10.0 mi ESE 19.6 mph 28.8 mph 0.01 in   Overcast
2:16 PM 39.2 °F 28.7 °F 35.6 °F 87% 29.15 in 10.0 mi ESE 23.0 mph 31.1 mph N/A   Overcast
2:36 PM 39.2 °F 29.0 °F 35.6 °F 87% 29.15 in 10.0 mi ESE 21.9 mph 26.5 mph N/A   Overcast
2:56 PM 39.2 °F 30.2 °F 35.6 °F 87% 29.15 in 10.0 mi ESE 17.3 mph - N/A   Overcast
3:16 PM 41.0 °F 31.9 °F 35.6 °F 81% 29.14 in 10.0 mi ESE 19.6 mph 25.3 mph N/A   Overcast
3:36 PM 39.2 °F 30.2 °F 35.6 °F 87% 29.15 in 10.0 mi ESE 17.3 mph 23.0 mph N/A   Mostly Cloudy
3:56 PM 39.2 °F 31.2 °F 33.8 °F 81% 29.14 in 10.0 mi ESE 13.8 mph 20.7 mph N/A   Overcast
4:16 PM 39.2 °F 31.2 °F 35.6 °F 87% 29.14 in 10.0 mi East 13.8 mph 18.4 mph N/A   Scattered Clouds
4:36 PM 39.2 °F 31.6 °F 35.6 °F 87% 29.14 in 10.0 mi East 12.7 mph - N/A   Mostly Cloudy
4:56 PM 39.2 °F 32.0 °F 33.8 °F 81% 29.14 in 10.0 mi East 11.5 mph - N/A   Overcast
5:16 PM 39.2 °F 31.2 °F 35.6 °F 87% 29.14 in 10.0 mi ESE 13.8 mph 19.6 mph N/A   Overcast
5:36 PM 39.2 °F 31.2 °F 35.6 °F 87% 29.13 in 10.0 mi ESE 13.8 mph - N/A   Overcast
5:56 PM 39.2 °F 30.5 °F 35.6 °F 87% 29.13 in 10.0 mi ESE 16.1 mph - N/A   Overcast
6:16 PM 41.0 °F 32.8 °F 35.6 °F 81% 29.13 in 10.0 mi ESE 16.1 mph 24.2 mph N/A   Overcast
6:36 PM 39.2 °F 31.6 °F 35.6 °F 87% 29.12 in 10.0 mi ESE 12.7 mph - N/A   Overcast
6:56 PM 39.2 °F 32.5 °F 35.6 °F 87% 29.12 in 10.0 mi East 10.4 mph - N/A   Overcast
7:16 PM 37.4 °F 30.3 °F 33.8 °F 87% 29.12 in 10.0 mi East 10.4 mph - 0.01 in   Overcast
7:36 PM 37.4 °F 29.8 °F 33.8 °F 87% 29.12 in 10.0 mi East 11.5 mph - 0.04 in   Overcast
7:56 PM 37.4 °F 30.8 °F 33.8 °F 87% 29.12 in 10.0 mi East 9.2 mph - 0.06 in   Overcast
8:16 PM 37.4 °F 30.8 °F 33.8 °F 87% 29.11 in 10.0 mi ENE 9.2 mph - 0.01 in   Overcast
8:36 PM 37.4 °F 31.4 °F 33.8 °F 87% 29.11 in 10.0 mi ENE 8.1 mph - 0.01 in   Overcast
8:56 PM 35.6 °F 29.9 °F 33.8 °F 93% 29.10 in 10.0 mi East 6.9 mph - 0.02 in   Mostly Cloudy
9:16 PM 35.6 °F 28.6 °F 33.8 °F 93% 29.10 in 10.0 mi East 9.2 mph - N/A   Mostly Cloudy
9:36 PM 35.6 °F 29.9 °F 32.0 °F 87% 29.09 in 10.0 mi ENE 6.9 mph - N/A   Scattered Clouds
9:56 PM 35.6 °F 31.7 °F 32.0 °F 87% 29.09 in 10.0 mi NNE 4.6 mph - N/A   Scattered Clouds
10:16 PM 35.6 °F 27.5 °F 33.8 °F 93% 29.09 in 10.0 mi East 11.5 mph - N/A   Scattered Clouds
10:36 PM 37.4 °F 29.3 °F 33.8 °F 87% 29.08 in 10.0 mi East 12.7 mph - N/A   Partly Cloudy
10:56 PM 37.4 °F 32.1 °F 33.8 °F 87% 29.09 in 10.0 mi East 6.9 mph - N/A   Clear
11:16 PM 37.4 °F 32.1 °F 33.8 °F 87% 29.09 in 10.0 mi East 6.9 mph - N/A   Mostly Cloudy
11:36 PM 37.4 °F 32.8 °F 33.8 °F 87% 29.09 in 10.0 mi ENE 5.8 mph - N/A   Overcast
11:56 PM 35.6 °F 29.2 °F 33.8 °F 93% 29.09 in 10.0 mi ENE 8.1 mph - N/A   Overcast